sat.trackr.live / text

‹ back to catalog

STARLINK-2545

NORAD 48289 · 2021-036P

PAYLOAD ACTIVE UNKNOWN

§ Identity

Operator
Country
US
Launch date
2021-04-29
Launch site
AFETR
Launch vehicle
Mass (kg)
RCS (m²)

Purposes: comms

External: N2YO · Heavens-Above · Gunter

§ Orbital elements

Epoch: 2026-09-09T20:55:24.743424Z

Period
94.01 min
Inclination
53.1592°
Eccentricity
0.0001224
Mean motion
15.31705556 rev/d
Perigee alt
469.9 km
Apogee alt
471.6 km
Semi-major
6,848.9 km
B*
-1.9144e-5
RAAN
298.5551°
Arg perigee
76.3837°
Mean anomaly
283.7301°
Rev number
29,662

§ Raw data

STARLINK-25451 48289U 21036P   26252.87181416 -.00000959  00000+0 -19144-4 0  99932 48289  53.1592 298.5551 0001224  76.3837 283.7301 15.31705556296623

JSON: /api/v1/satellites/48289 · /tle

For live sub-satellite position, see the globe view (requires WebGL).

§ Visibility from observer

Set your observer location to see the next 7 days of passes ≥ 10°. The values pass through the URL so the page stays shareable.

No JS? Fill the form by hand. The geolocation button needs JavaScript.